Temperature
0 -0 -1 -2 -3 -4 -4 -5 -6 -7 -7 -8 -9 -10 -10 -11 -11 -12 -11 -11 -11 -11 -11 -11 -12 -12 -12 -12 -11 -11 -11 -10 -10 -10 -9 -9 -8 -8 -7 -6 -6 -5 -4
0 -1 -1 -2 -3 -3 -4 -5 -6 -7 -7 -8 -9 -9 -10 -11 -11 -11 -11 -11 -11 -11 -11 -11 -12 -12 -12 -12 -11 -11 -11 -11 -11 -11 -10 -9 -9 -8 -8 -7 -6 -5 -4
-0 -1 -1 -2 -3 -4 -4 -5 -6 -6 -7 -8 -9 -9 -10 -10 -11 -11 -11 -11 -11 -11 -11 -11 -12 -12 -12 -12 -11 -11 -11 -11 -11 -11 -11 -10 -10 -9 -8 -7 -6 -5 -4
-0 -1 -1 -2 -3 -3 -4 -5 -5 -6 -7 -8 -9 -9 -9 -10 -10 -10 -10 -10 -10 -10 -11 -11 -12 -12 -12 -12 -11 -11 -11 -11 -11 -11 -11 -11 -10 -10 -9 -8 -7 -5 -4
-0 -1 -1 -2 -3 -3 -4 -4 -5 -6 -7 -8 -8 -9 -9 -9 -9 -10 -10 -9 -10 -10 -10 -11 -11 -12 -11 -11 -11 -11 -11 -11 -11 -11 -11 -11 -11 -11 -10 -10 -8 -6 -4
0 -1 -1 -2 -3 -3 -4 -4 -5 -5 -6 -7 -8 -9 -9 -9 -10 -9 -9 -9 -9 -10 -10 -11 -11 -12 -12 -11 -11 -11 -11 -11 -11 -11 -11 -11 -11 -11 -11 -10 -10 -8 -6
-0 -1 -1 -2 -3 -3 -4 -4 -4 -5 -6 -7 -8 -9 -9 -9 -9 -9 -8 -8 -9 -10 -10 -11 -11 -12 -12 -12 -12 -12 -12 -12 -12 -11 -11 -12 -11 -11 -11 -10 -10 -9 -7
-0 -1 -1 -2 -2 -3 -3 -4 -4 -5 -6 -7 -8 -8 -9 -9 -9 -9 -8 -8 -9 -10 -10 -11 -11 -12 -12 -11 -11 -12 -12 -12 -12 -12 -12 -12 -11 -11 -11 -10 -10 -8 -6
0 -1 -1 -2 -2 -3 -3 -3 -4 -5 -5 -6 -7 -8 -9 -9 -9 -9 -8 -9 -9 -10 -10 -11 -11 -12 -12 -11 -12 -12 -12 -12 -12 -12 -12 -12 -11 -11 -10 -10 -9 -9 -7
0 -0 -1 -2 -2 -3 -3 -3 -4 -4 -5 -6 -7 -8 -9 -9 -9 -9 -8 -9 -9 -10 -10 -11 -12 -12 -11 -11 -12 -12 -12 -12 -12 -12 -12 -12 -11 -11 -11 -10 -10 -9 -8
0 -1 -1 -2 -2 -3 -3 -4 -4 -4 -5 -5 -6 -7 -9 -9 -10 -9 -9 -9 -9 -10 -11 -11 -11 -11 -11 -12 -12 -12 -12 -12 -12 -12 -12 -12 -12 -11 -11 -10 -9 -9 -7
-0 -1 -1 -2 -2 -3 -3 -3 -4 -4 -5 -5 -6 -7 -8 -9 -10 -10 -9 -9 -9 -10 -11 -11 -11 -11 -11 -12 -12 -12 -12 -13 -13 -13 -13 -12 -12 -11 -10 -9 -8 -7 -6
-0 -1 -1 -2 -2 -3 -3 -3 -4 -4 -5 -5 -6 -7 -8 -9 -9 -10 -10 -10 -10 -10 -11 -11 -11 -11 -12 -12 -12 -12 -13 -13 -13 -13 -13 -12 -12 -11 -10 -9 -7 -6 -5
-0 -1 -1 -2 -2 -3 -3 -4 -4 -4 -5 -5 -6 -7 -7 -8 -9 -10 -10 -10 -10 -10 -10 -10 -11 -11 -12 -12 -12 -12 -13 -13 -13 -13 -13 -12 -12 -11 -10 -9 -7 -5 -4
-0 -1 -1 -2 -2 -3 -3 -4 -4 -4 -5 -6 -6 -7 -8 -9 -9 -10 -10 -10 -10 -10 -10 -10 -11 -11 -11 -12 -12 -12 -12 -13 -13 -13 -13 -13 -12 -11 -10 -9 -7 -6 -4
-0 -1 -1 -2 -2 -3 -3 -4 -4 -4 -5 -5 -6 -7 -8 -9 -10 -10 -10 -10 -10 -10 -10 -10 -11 -11 -12 -12 -12 -12 -12 -13 -13 -13 -13 -13 -12 -12 -10 -9 -7 -6 -4
0 -0 -1 -2 -2 -3 -3 -4 -4 -4 -5 -5 -6 -7 -7 -9 -9 -9 -9 -10 -10 -10 -10 -10 -11 -11 -11 -11 -12 -12 -12 -12 -13 -13 -13 -13 -12 -12 -11 -9 -8 -6 -4
0 -1 -1 -2 -2 -3 -3 -4 -4 -4 -5 -5 -6 -6 -7 -8 -9 -9 -9 -9 -9 -9 -10 -10 -11 -11 -11 -11 -11 -12 -12 -12 -12 -12 -12 -12 -12 -12 -11 -10 -9 -7 -5
0 -0 -1 -2 -2 -3 -3 -4 -4 -4 -5 -5 -6 -6 -7 -7 -8 -8 -9 -9 -9 -10 -10 -10 -10 -11 -11 -11 -11 -11 -11 -12 -12 -12 -12 -12 -12 -12 -11 -10 -9 -8 -6
0 -0 -1 -2 -2 -3 -3 -4 -4 -4 -5 -5 -6 -6 -7 -7 -7 -8 -9 -9 -9 -10 -10 -10 -10 -10 -11 -11 -11 -11 -11 -11 -11 -12 -12 -12 -12 -12 -11 -11 -9 -8 -7
1 -0 -1 -2 -2 -3 -3 -4 -4 -4 -5 -5 -6 -6 -7 -7 -8 -8 -9 -9 -9 -10 -10 -10 -10 -10 -10 -11 -11 -11 -11 -11 -11 -12 -12 -12 -12 -12 -11 -11 -10 -8 -7
1 -0 -1 -1 -2 -2 -3 -4 -4 -4 -5 -5 -6 -6 -7 -7 -8 -8 -9 -9 -9 -10 -10 -10 -10 -10 -10 -10 -10 -11 -11 -11 -11 -11 -12 -12 -12 -11 -11 -11 -10 -9 -7
0 -0 -1 -1 -2 -2 -3 -4 -4 -4 -5 -5 -6 -6 -7 -7 -8 -8 -8 -9 -9 -9 -10 -10 -10 -10 -10 -10 -10 -10 -11 -11 -11 -11 -12 -12 -12 -12 -11 -11 -10 -9 -8
0 -0 -1 -1 -2 -2 -3 -3 -4 -4 -5 -5 -6 -6 -7 -7 -8 -8 -8 -8 -9 -9 -9 -9 -10 -10 -10 -10 -10 -10 -10 -11 -11 -11 -11 -12 -12 -12 -11 -11 -10 -10 -9
-0 -0 -1 -1 -1 -2 -3 -3 -4 -4 -5 -5 -6 -6 -7 -7 -8 -8 -8 -8 -9 -9 -9 -9 -9 -9 -10 -10 -10 -10 -10 -11 -11 -11 -11 -12 -12 -12 -12 -11 -11 -10 -9
-1 -0 -1 -1 -1 -2 -3 -3 -4 -4 -5 -5 -6 -6 -7 -7 -8 -8 -8 -8 -8 -9 -9 -9 -9 -9 -9 -9 -10 -10 -10 -10 -11 -11 -11 -12 -12 -12 -12 -11 -11 -11 -10
Wind_Speed
7 6 5 5 6 5 6 7 6 6 8 7 8 8 8 8 7 8 10 12 11 11 10 10 12 12 10 10 11 11 10 10 13 13 11 12 14 13 13 11 13 12 14
7 6 5 6 6 7 7 7 6 6 8 9 9 9 10 10 9 9 12 12 12 12 12 11 12 12 12 11 11 12 11 10 11 15 13 12 13 13 12 12 12 12 11
7 6 6 6 7 6 6 6 6 7 7 8 8 9 10 10 10 11 12 13 14 13 12 12 12 12 13 12 12 12 11 11 9 12 13 11 11 11 12 12 13 11 13
8 7 7 6 6 5 6 7 8 8 9 9 9 10 10 10 12 13 14 14 15 14 13 13 12 12 13 13 12 12 12 11 9 10 11 11 10 10 10 10 12 11 11
8 7 7 5 4 5 7 8 9 9 11 9 10 10 10 11 12 15 14 14 13 13 12 12 12 16 19 16 14 13 12 9 10 11 11 11 10 9 10 10 12 12 13
8 7 6 5 5 7 8 8 9 9 10 10 9 9 11 13 22 28 21 11 11 11 10 10 11 13 17 22 25 23 20 13 11 10 10 11 11 10 10 11 11 11 8
9 8 7 6 6 7 8 9 9 9 10 10 9 9 12 16 26 27 27 15 10 9 9 8 10 11 15 11 17 20 18 22 21 14 12 11 12 11 11 12 11 11 12
9 8 8 7 7 7 8 9 9 9 9 9 9 10 11 16 25 26 26 12 9 8 8 8 9 9 12 15 10 9 10 11 16 12 10 11 12 11 11 11 12 12 13
10 9 8 8 7 7 8 9 9 9 8 8 8 9 10 13 22 25 23 7 7 8 8 8 9 8 18 22 12 11 12 11 15 19 20 18 19 18 14 8 7 8 8
12 10 9 8 8 8 9 9 7 7 8 8 8 8 9 10 19 24 23 6 7 7 7 8 13 16 20 21 10 10 13 12 12 13 14 15 12 13 15 8 6 7 6
10 9 9 8 8 8 8 6 7 7 7 7 8 8 9 11 17 22 23 10 8 8 8 7 8 20 20 20 17 10 16 15 12 12 10 9 8 7 7 7 7 8 8
11 10 8 8 7 6 6 7 6 6 6 7 7 8 6 9 14 18 23 20 17 8 9 8 10 20 20 20 16 18 22 17 10 10 10 9 9 9 8 9 9 10 11
12 10 8 8 7 6 6 6 5 4 4 5 5 7 7 7 10 19 21 21 21 11 9 17 19 20 18 14 18 21 17 11 11 11 11 11 10 10 10 9 8 8 10
13 11 9 8 7 6 5 5 4 4 4 4 5 6 7 8 8 9 8 9 14 12 9 13 18 18 15 16 15 13 10 11 12 11 11 11 10 10 9 9 8 8 5
13 11 9 8 6 5 5 5 5 5 5 5 4 4 6 7 11 18 14 10 9 9 9 6 6 7 8 8 8 9 9 10 11 12 11 11 11 11 11 10 8 7 5
13 12 9 8 6 5 5 4 7 6 8 9 8 8 7 12 17 17 18 18 17 17 11 8 9 9 10 10 10 10 9 11 11 12 12 12 12 12 11 10 10 8 7
14 12 10 9 7 6 5 4 3 4 5 7 8 8 9 13 15 15 16 16 15 14 8 7 8 9 9 9 8 7 7 9 9 10 11 12 12 12 12 12 11 10 9
15 15 12 9 8 7 6 5 4 3 3 4 5 7 9 12 13 13 14 12 9 9 6 7 8 9 9 8 8 7 7 8 8 9 10 11 11 12 12 12 12 12 10
15 11 10 9 8 7 6 5 4 4 4 3 3 3 7 10 11 11 11 5 6 8 8 8 9 9 9 8 8 7 7 7 8 8 9 10 11 11 11 12 12 16 12
14 19 15 10 9 8 7 6 5 4 3 3 3 2 3 5 4 5 5 5 5 7 8 9 9 9 9 8 7 7 6 6 7 7 8 9 10 10 11 12 12 12 10
13 16 20 13 10 9 7 7 6 5 4 3 3 3 4 2 4 4 5 5 5 6 7 8 8 9 8 7 6 6 6 5 6 7 8 8 9 10 10 10 11 11 10
14 13 12 11 10 9 8 7 6 6 5 4 3 3 4 2 3 3 4 5 5 5 6 7 8 7 7 7 7 6 5 5 5 6 7 8 8 9 9 10 11 11 11
14 15 13 11 10 13 11 8 7 6 5 5 4 3 2 2 2 3 4 4 5 6 6 6 8 8 6 6 6 4 4 4 4 4 6 7 8 8 9 9 11 11 11
15 16 15 13 12 11 10 9 8 7 6 5 4 3 3 2 2 3 3 4 5 6 6 7 7 9 11 9 7 4 3 3 4 4 5 6 7 8 8 8 9 11 10
16 15 15 14 13 12 11 10 9 8 7 6 5 4 3 2 2 2 2 3 5 6 8 9 8 9 11 12 9 5 4 4 6 7 6 5 7 8 8 8 8 8 8
16 16 15 13 13 12 11 11 10 10 8 7 6 5 4 3 2 2 2 2 4 6 7 7 10 13 13 10 8 5 4 4 6 8 7 4 6 7 7 7 9 9 9
Wind_Direction
199 212 232 246 254 261 266 270 274 282 289 288 292 294 296 296 293 294 294 297 294 295 297 300 301 304 305 309 309 309 308 307 305 308 307 307 307 306 303 302 299 291 285
194 201 228 246 256 260 266 274 282 284 288 289 292 295 298 299 292 289 292 296 291 291 291 293 295 303 302 303 304 306 305 303 306 310 311 311 307 306 304 306 304 297 286
183 200 228 245 254 263 276 286 289 286 286 289 292 293 293 293 290 285 282 282 282 280 280 284 286 292 295 298 300 302 303 307 303 303 307 309 308 312 316 313 309 300 292
182 200 225 242 258 276 291 294 290 286 288 287 285 286 289 291 289 283 278 275 275 272 272 275 279 283 285 290 300 305 308 307 304 304 305 307 309 315 322 323 319 314 304
183 201 221 241 272 287 287 285 284 284 288 282 283 286 289 292 289 283 278 278 274 271 270 270 277 292 303 310 314 313 313 311 311 306 305 308 310 318 319 318 314 314 305
183 199 210 230 254 266 273 277 280 281 282 282 281 285 292 296 299 304 311 306 297 286 282 276 281 293 304 317 317 320 325 321 313 307 305 304 304 304 306 306 309 311 308
184 195 204 221 246 260 274 281 283 286 286 284 283 285 288 294 304 310 319 329 315 299 289 286 296 304 315 301 310 323 323 320 317 310 303 296 294 293 293 295 294 294 286
186 196 202 216 239 255 267 275 279 280 280 282 285 286 289 298 311 317 326 333 313 301 292 288 289 293 305 312 320 319 308 306 308 308 295 290 289 284 276 278 285 291 286
192 197 200 208 230 248 260 267 272 278 285 287 287 289 293 304 316 322 334 324 317 313 308 309 314 304 314 327 335 322 317 313 322 324 321 318 315 313 308 298 293 296 295
195 194 193 201 219 239 253 264 275 285 289 295 298 298 301 304 318 329 337 329 321 324 323 325 329 326 328 335 336 324 321 326 332 326 322 318 312 307 310 301 284 281 282
183 183 189 199 218 238 253 267 280 287 296 303 306 304 306 316 328 331 339 346 341 338 336 330 320 329 338 341 341 329 331 344 336 324 321 317 313 303 294 281 265 259 259
173 179 188 202 222 239 250 264 273 288 302 307 309 310 311 321 329 331 341 346 350 345 335 325 323 339 346 347 344 342 348 348 335 331 331 330 328 321 310 297 279 261 249
171 180 189 202 217 228 240 256 273 286 291 299 309 315 321 324 326 332 338 343 346 346 334 340 345 349 350 345 345 350 351 343 341 341 338 335 330 321 315 310 298 284 268
176 183 189 198 211 225 235 238 245 263 282 296 307 313 318 320 316 319 324 331 339 336 332 338 344 346 349 348 349 347 345 345 348 342 337 335 333 333 332 331 327 324 313
178 184 188 191 198 218 231 232 239 227 239 268 265 285 308 313 317 331 340 337 335 337 347 339 334 337 343 343 344 345 346 348 350 346 345 345 345 345 344 343 338 338 336
181 186 187 186 192 204 219 252 275 260 265 279 286 295 306 312 322 334 338 342 345 353 358 343 342 342 343 344 344 343 345 350 350 349 349 349 349 348 347 348 351 349 346
182 181 183 184 187 194 200 211 250 290 291 287 286 299 311 321 329 334 340 346 352 359 357 340 338 337 337 338 337 338 339 341 344 348 350 351 351 351 352 353 354 354 351
180 183 182 182 183 187 192 196 206 230 274 291 302 310 322 330 333 338 347 353 349 353 345 339 336 335 334 334 334 334 335 339 345 348 349 351 353 354 356 356 355 355 350
180 182 181 176 179 182 184 186 199 219 237 261 286 313 337 337 340 346 354 352 338 341 341 338 334 333 332 331 330 331 332 337 343 347 349 351 353 355 356 355 353 354 357
183 184 178 177 178 181 183 187 196 207 223 247 270 274 321 335 331 334 339 332 336 335 335 334 331 328 329 328 328 330 333 339 346 350 349 350 352 355 356 355 354 353 352
178 183 181 179 180 181 183 187 190 192 205 225 242 256 306 314 306 313 322 327 330 328 327 326 324 325 326 327 329 333 336 341 348 351 351 351 352 355 355 355 354 353 353
175 176 178 178 178 181 184 185 184 187 198 215 232 256 302 303 293 305 312 316 317 315 316 319 319 320 324 329 331 334 339 344 349 352 351 351 352 354 355 357 358 357 359
174 174 176 178 177 186 188 184 184 185 193 203 209 216 233 245 281 296 305 314 318 318 317 319 320 322 325 327 328 332 338 345 349 355 355 353 354 356 357 358 358 360 0
176 174 175 176 178 182 183 184 185 187 187 192 198 203 206 218 257 286 302 314 322 322 321 322 321 323 327 332 335 337 342 9 17 11 5 1 360 357 356 358 360 359 3
178 175 175 176 178 182 184 185 186 185 185 189 192 192 193 208 239 271 300 316 325 324 325 326 326 327 326 328 332 338 2 35 46 42 22 12 6 3 2 2 3 2 9
179 177 175 175 177 180 182 184 184 183 183 185 183 181 186 198 219 246 281 311 326 324 324 325 324 325 324 328 332 350 34 59 64 52 41 23 15 15 14 11 8 14 15
Height
1519 1519 1518 1516 1514 1511 1507 1503 1500 1496 1492 1487 1483 1478 1473 1469 1464 1459 1454 1450 1446 1441 1436 1431 1425 1420 1414 1408 1403 1399 1394 1390 1382 1375 1371 1366 1363 1360 1356 1354 1352 1351 1350
1514 1514 1513 1512 1509 1506 1503 1500 1496 1492 1487 1483 1478 1474 1469 1464 1459 1454 1449 1445 1440 1435 1431 1426 1421 1415 1410 1404 1399 1394 1390 1385 1380 1372 1365 1362 1358 1355 1352 1349 1346 1345 1344
1509 1509 1508 1507 1504 1502 1499 1495 1492 1487 1483 1479 1474 1470 1464 1459 1454 1449 1444 1439 1434 1429 1425 1420 1415 1411 1405 1400 1395 1390 1385 1380 1375 1369 1362 1358 1354 1351 1347 1343 1340 1338 1337
1504 1504 1503 1502 1500 1497 1495 1491 1487 1483 1479 1474 1470 1465 1460 1455 1450 1444 1439 1433 1428 1423 1418 1414 1410 1406 1401 1396 1391 1386 1380 1374 1369 1364 1358 1353 1349 1346 1343 1338 1334 1332 1331
1498 1498 1498 1497 1495 1493 1490 1487 1483 1479 1475 1470 1465 1461 1456 1451 1445 1440 1434 1428 1423 1417 1412 1408 1405 1401 1397 1393 1388 1382 1376 1370 1364 1359 1354 1349 1345 1342 1339 1335 1331 1327 1326
1492 1493 1493 1492 1491 1489 1486 1483 1479 1475 1470 1466 1461 1457 1452 1447 1442 1437 1432 1425 1419 1413 1407 1403 1400 1396 1392 1388 1383 1378 1373 1366 1360 1355 1350 1345 1341 1338 1334 1331 1328 1325 1322
1487 1487 1488 1487 1486 1484 1481 1478 1475 1471 1466 1461 1457 1453 1448 1443 1438 1434 1428 1422 1416 1410 1404 1399 1395 1392 1388 1382 1377 1372 1367 1362 1358 1352 1346 1341 1336 1333 1330 1326 1324 1321 1318
1481 1482 1482 1482 1481 1479 1477 1474 1471 1467 1462 1458 1453 1449 1444 1440 1436 1431 1425 1419 1413 1407 1401 1396 1392 1387 1383 1378 1372 1366 1361 1356 1352 1346 1341 1336 1332 1328 1326 1323 1320 1316 1313
1474 1475 1476 1477 1476 1475 1473 1470 1467 1463 1459 1455 1450 1445 1441 1437 1432 1428 1422 1416 1410 1404 1399 1393 1389 1384 1380 1375 1369 1362 1356 1351 1346 1341 1336 1331 1327 1323 1321 1319 1316 1313 1310
1468 1470 1471 1471 1471 1470 1468 1466 1463 1460 1456 1451 1447 1443 1438 1434 1430 1425 1420 1413 1407 1401 1396 1391 1386 1381 1377 1372 1366 1360 1353 1347 1341 1335 1330 1325 1321 1318 1315 1313 1311 1309 1307
1462 1463 1465 1465 1466 1465 1464 1462 1459 1456 1452 1448 1444 1439 1435 1431 1427 1422 1418 1412 1406 1400 1394 1388 1383 1379 1375 1369 1364 1359 1353 1346 1338 1332 1327 1322 1317 1314 1310 1308 1306 1305 1303
1455 1457 1459 1460 1460 1460 1459 1458 1456 1453 1449 1445 1440 1436 1432 1428 1424 1420 1416 1411 1406 1399 1393 1388 1383 1378 1373 1367 1362 1357 1351 1344 1337 1331 1325 1320 1315 1310 1306 1303 1302 1300 1298
1447 1450 1452 1454 1455 1455 1455 1453 1452 1449 1446 1442 1437 1433 1428 1425 1421 1417 1413 1408 1404 1399 1393 1388 1383 1377 1372 1366 1361 1356 1349 1342 1336 1330 1324 1319 1313 1308 1304 1300 1298 1296 1295
1440 1443 1446 1447 1449 1450 1450 1449 1448 1446 1443 1439 1435 1430 1425 1421 1418 1415 1411 1406 1401 1397 1392 1387 1382 1376 1371 1366 1360 1354 1348 1343 1338 1331 1325 1319 1313 1307 1302 1299 1296 1294 1293
1433 1436 1439 1441 1443 1444 1445 1445 1444 1442 1439 1436 1432 1428 1423 1419 1416 1414 1410 1405 1401 1397 1392 1386 1380 1375 1370 1364 1359 1354 1349 1343 1337 1331 1325 1319 1313 1307 1302 1299 1296 1294 1293
1425 1428 1431 1434 1437 1438 1440 1440 1439 1439 1436 1434 1430 1426 1422 1418 1415 1412 1408 1404 1400 1396 1391 1386 1381 1376 1371 1366 1360 1355 1350 1345 1339 1333 1327 1321 1315 1309 1304 1300 1297 1295 1293
1416 1421 1424 1427 1430 1432 1434 1435 1435 1435 1433 1431 1428 1424 1421 1417 1414 1410 1407 1403 1399 1395 1391 1386 1381 1377 1372 1367 1362 1357 1352 1347 1341 1336 1330 1324 1318 1312 1307 1302 1298 1296 1294
1409 1413 1417 1420 1423 1426 1428 1429 1430 1430 1430 1428 1425 1422 1419 1415 1412 1409 1406 1402 1399 1395 1391 1386 1382 1378 1373 1369 1364 1359 1354 1349 1343 1338 1332 1327 1321 1315 1310 1305 1302 1299 1297
1401 1405 1409 1413 1417 1420 1422 1424 1425 1426 1425 1424 1422 1420 1417 1414 1410 1407 1404 1401 1397 1394 1390 1387 1383 1379 1374 1370 1365 1361 1356 1351 1346 1340 1335 1330 1324 1319 1314 1310 1306 1303 1300
1393 1398 1403 1406 1410 1413 1416 1419 1420 1421 1421 1421 1419 1417 1415 1412 1409 1406 1403 1400 1397 1394 1390 1387 1383 1379 1375 1371 1367 1362 1357 1353 1348 1343 1338 1333 1328 1323 1318 1314 1310 1306 1304
1385 1390 1395 1400 1403 1407 1410 1413 1415 1416 1417 1417 1416 1415 1412 1410 1407 1404 1401 1399 1396 1393 1390 1387 1383 1380 1376 1372 1368 1363 1359 1355 1350 1345 1341 1336 1331 1326 1322 1318 1314 1311 1308
1377 1382 1387 1392 1396 1400 1404 1407 1410 1412 1413 1413 1413 1412 1410 1408 1405 1402 1400 1397 1395 1392 1390 1387 1383 1380 1376 1372 1368 1365 1361 1357 1352 1348 1344 1339 1335 1330 1326 1322 1318 1314 1312
1369 1375 1380 1385 1390 1395 1398 1401 1404 1407 1408 1409 1409 1409 1407 1405 1403 1401 1398 1396 1394 1392 1389 1386 1383 1380 1376 1373 1369 1366 1362 1358 1355 1351 1347 1343 1338 1334 1330 1326 1322 1319 1316
1361 1367 1373 1378 1384 1388 1392 1395 1399 1401 1404 1405 1405 1405 1404 1403 1401 1399 1396 1394 1392 1390 1388 1386 1383 1380 1376 1373 1370 1367 1363 1360 1357 1354 1350 1346 1342 1338 1334 1330 1327 1324 1322
1353 1359 1365 1371 1377 1381 1386 1390 1393 1396 1399 1400 1401 1402 1401 1400 1398 1396 1394 1393 1391 1389 1387 1385 1382 1379 1376 1373 1370 1367 1364 1361 1359 1356 1353 1349 1346 1342 1338 1335 1332 1329 1327
1343 1350 1357 1364 1370 1375 1379 1383 1387 1391 1393 1396 1397 1398 1398 1397 1396 1394 1392 1391 1389 1387 1386 1384 1382 1379 1376 1373 1370 1368 1365 1363 1360 1358 1356 1353 1349 1346 1343 1340 1337 1334 1332